Location: Amberg
(48.0613°N, 10.6820°E)
Time: 21:27:09
(UTC+00:00)

Meteor 2-1 Rocket - Pass Details

Date: 18 November 2025
Orbit: 822 x 912 km, 81.3° (Epoch: 10 December)

Event Time Altitude Azimuth Distance (km) Brightness Sun altitude
Rises 17:43:10 0° 179° (S) 3,503 7.5 -21.0°
Reaches altitude 10° 17:45:37 10° 177° (S) 2,575 6.7 -21.4°
Maximum altitude 17:51:26 66° 97° (E) 995 4.2 -22.4°
Drops below altitude 10° 17:57:21 10° 17° (NNE) 2,611 6.5 -23.4°
Enters shadow 17:57:34 - 16° (NNE) 2,698 6.6 -23.4°
